COSMOS 540

Satellite information

Favourite Embed

Satellite Type and Status

PAYLOADIN ORBIT

Key statistics

Satellite COSMOS 540 at a glance.

Uptime

19346

Days in orbit

Revolutions

≈ 14.4

Per day

Orbit

LEO

Low Earth Orbit

Inclination

74.1

Latest

Satellite identification and parameters

Extended collection of information and parameters for COSMOS 540.

Object identification

Identified? True

Debris? False

Object name: COSMOS 540

International designator: 1972-104A

Object number (NORAD): 6323

Object ID (CCSDS): 6323

Country: COMMONWEALTH OF INDEPENDENT STATES (CIS)

Current information (Y/N): Y

RCS size: LARGE

Orbital parameters

Period: 100.179 minutes

Inclination: 74.0813 deg

SMA: 7145.132 km

Apoapsis: 778.855 km

Periapsis: 755.139 km

RAAN: 82.6214 deg

Eccentricy: 0.00165955

Argument of periapsis: 96.4386 deg

Mean anomaly: 263.8658 deg

Mean motion: 14.37432204 rev/day

Mean motion (dot): 0.00000309 rev/day2

B* drag term: 0.00011186465 1/REarth

Two-line elements (TLE)

Creation date: Dec. 12, 2025, 10:14 a.m.

Reference frame: TEME

Reference center: EARTH

Epoch: Dec. 12, 2025, 7:24 a.m. UTC

TLE line 0: 0 COSMOS 540

TLE line 1: 1 06323U 72104A 25346.30859861 .00000309 00000-0 11186-3 0 9990

TLE line 2: 2 06323 74.0813 82.6214 0016596 96.4386 263.8658 14.37432204772166

Live tracking on map

Real-time ground track for satellite COSMOS 540.

In-orbit conjunctions

A list of the most updated potential collisions computed for object COSMOS 540.

Target Orbit TCA Probability of collision Miss distance Type
CZ-6A DEB SSO 2025-12-01 22:08:02 0.001210614 99.0 (m) DEBRIS
IRIDIUM 47 DEB LEO 2025-08-13 15:13:51 0.0002841589 608.0 (m) DEBRIS
CZ-6A DEB LEO 2025-06-07 03:54:40 0.0001301188 34.0 (m) DEBRIS
CZ-6A DEB LEO 2025-04-13 07:47:55 0.000165406 604.0 (m) DEBRIS
THORAD AGENA D DEB LEO 2025-01-18 06:44:27 0.0001147476 379.0 (m) DEBRIS

Associated space launch

Military communications satellite

COSMOS 540 was lifted into orbit during the mission ‘Kosmos-3M | Strela-2M 7’, on board a Kosmos-3M space rocket.

The launch took place on Dec. 25, 1972, 11:05 p.m. from 132/2.

For more information about the launch, click the button.

Launch to space Kosmos-3M | Strela-2M 7
Kosmos-3M | Strela-2M 7

Agency: N/A

Status: Launch Successful

Launch date: Dec. 25, 1972, 11:05 p.m. UTC

Rocket: Kosmos-3M

Launch pad: 132/2

Location: Plesetsk Cosmodrome, Russian Federation

...

Latest news about this satellite

There are no fresh news available about this satellite. Check back as we update our databases every day.


Newsletter sign-up

Weekly statistics, charts and insights to help you stay on top of the space industry.